Location: Unspecified
(0.0000°N, 0.0000°E)
Time: 20:30:41
(UTC+00:00)

NOAA 16 DEB - Visible Passes

Search period start: 14 January 2025 00:00
Search period end: 24 January 2025 00:00
Orbit: 708 x 737 km, 99.0° (Epoch: 14 January)

Date Brightness Start Highest point End Pass type
(mag) Time Alt. Az. Time Alt. Az. Time Alt. Az.
14 Jan ? 19:07:47 10° NNW 19:11:35 23° WNW 19:15:21 10° SW visible
16 Jan ? 19:07:27 10° NNW 19:11:17 24° WNW 19:15:06 10° SW visible
18 Jan ? 19:06:57 10° NNW 19:10:50 24° WNW 19:14:42 10° SW visible
20 Jan ? 19:06:18 10° NNW 19:10:14 25° WNW 19:14:10 10° SW visible
22 Jan ? 19:05:29 10° NNW 19:09:28 26° WNW 19:13:27 10° SW visible
